GW0614 Weather Reports


Display with metric or nautical units.
time (UTC)temp
F
wind
direction
speed
MPH
gust
MPH
rain 1hr
in
rain 24hr
in
rain mn
in
humidity
%
barometer
mb
20260504234344 65 49 0.0 0.0 0.00 0.00 0.00 50 1010.4
20260504233840 65 24 0.0 1.0 0.00 0.00 0.00 46 1010.4
20260504233336 65 49 0.0 0.0 0.00 0.00 0.00 47 1010.3
20260504232833 66 44 0.0 0.0 0.00 0.00 0.00 48 1010.4
20260504232330 66 50 3.0 6.0 0.00 0.00 0.00 45 1010.2
20260504231827 66 46 0.0 0.0 0.00 0.00 0.00 46 1010.3
20260504231323 66 55 0.0 0.0 0.00 0.00 0.00 47 1010.2
20260504230819 66 63 0.0 0.0 0.00 0.00 0.00 44 1010.3
20260504230318 66 39 0.0 0.0 0.00 0.00 0.00 45 1010.1
20260504225816 68 50 0.0 0.0 0.00 0.00 0.00 43 1010.1
20260504225312 68 47 0.0 0.0 0.00 0.00 0.00 44 1010.1
20260504224809 69 165 1.0 1.0 0.00 0.00 0.00 41 1010.0
20260504224306 69 58 1.0 2.0 0.00 0.00 0.00 38 1009.8
20260504223803 69 30 0.0 0.0 0.00 0.00 0.00 41 1009.7
20260504223258 69 353 0.0 0.0 0.00 0.00 0.00 39 1009.5
20260504222755 69 55 1.0 3.0 0.00 0.00 0.00 40 1009.6
20260504222252 70 187 3.0 6.0 0.00 0.00 0.00 39 1009.7
20260504221750 71 166 2.0 3.0 0.00 0.00 0.00 39 1009.8
20260504221247 71 16 0.0 0.0 0.00 0.00 0.00 37 1009.7
20260504220743 71 341 2.0 2.0 0.00 0.00 0.00 39 1009.8
20260504220240 71 25 0.0 2.0 0.00 0.00 0.00 37 1010.0
20260504215738 72 217 3.0 5.0 0.00 0.00 0.00 38 1010.0
20260504215234 72 32 0.0 0.0 0.00 0.00 0.00 39 1010.0
20260504214730 72 215 1.0 2.0 0.00 0.00 0.00 38 1010.2
20260504214227 72 61 0.0 0.0 0.00 0.00 0.00 40 1010.0
20260504213724 72 46 1.0 2.0 0.00 0.00 0.00 38 1010.0
20260504213220 73 12 4.0 7.0 0.00 0.00 0.00 34 1010.2
20260504212717 73 32 4.0 6.0 0.00 0.00 0.00 35 1010.2
20260504212214 73 342 0.0 0.0 0.00 0.00 0.00 39 1010.2
20260504211711 73 79 3.0 5.0 0.00 0.00 0.00 37 1010.1
20260504211207 73 103 3.0 3.0 0.00 0.00 0.00 39 1010.4
20260504210705 73 46 0.0 1.0 0.00 0.00 0.00 40 1010.4
20260504210201 73 284 0.0 1.0 0.00 0.00 0.00 37 1010.0
20260504205658 73 23 1.0 2.0 0.00 0.00 0.00 36 1010.2
20260504205155 71 166 0.0 0.0 0.00 0.00 0.00 43 1010.3
20260504204654 71 83 4.0 6.0 0.00 0.00 0.00 44 1010.2
20260504204153 72 65 0.0 0.0 0.00 0.00 0.00 43 1010.2
20260504203651 73 207 1.0 2.0 0.00 0.00 0.00 42 1010.5
20260504203149 72 354 1.0 2.0 0.00 0.00 0.00 37 1010.2
20260504202649 71 59 1.0 2.0 0.00 0.00 0.00 40 1010.4
20260504202146 72 150 3.0 6.0 0.00 0.00 0.00 36 1010.4
20260504201643 69 165 3.0 5.0 0.00 0.00 0.00 40 1010.4
20260504201141 69 52 0.0 0.0 0.00 0.00 0.00 44 1010.4
20260504200637 69 52 0.0 0.0 0.00 0.00 0.00 44 1010.7
20260504200134 69 22 1.0 1.0 0.00 0.00 0.00 39 1010.6
20260504195630 70 57 0.0 0.0 0.00 0.00 0.00 48 1010.6
20260504195126 69 25 0.0 0.0 0.00 0.00 0.00 41 1010.5
20260504194623 71 25 1.0 2.0 0.00 0.00 0.00 38 1010.7
20260504194119 73 67 3.0 6.0 0.00 0.00 0.00 37 1010.9
20260504193615 70 12 0.0 0.0 0.00 0.00 0.00 41 1010.6
20260504193114 69 56 3.0 3.0 0.00 0.00 0.00 42 1010.9
20260504192612 69 355 1.0 2.0 0.00 0.00 0.00 40 1010.8
20260504192110 69 346 2.0 3.0 0.00 0.00 0.00 40 1010.9
20260504191608 69 85 2.0 2.0 0.00 0.00 0.00 42 1010.9
20260504191104 69 65 0.0 0.0 0.00 0.00 0.00 42 1010.7
20260504190600 69 78 1.0 1.0 0.00 0.00 0.00 44 1010.9
20260504190056 71 25 0.0 0.0 0.00 0.00 0.00 43 1010.8
20260504185553 69 106 5.0 7.0 0.00 0.00 0.00 38 1011.0
20260504185050 69 123 5.0 8.0 0.00 0.00 0.00 38 1011.1
20260504184545 69 56 3.0 5.0 0.00 0.00 0.00 43 1011.1
20260504184041 73 6 0.0 1.0 0.00 0.00 0.00 37 1010.9
20260504183538 73 66 2.0 3.0 0.00 0.00 0.00 42 1011.1
20260504183036 74 45 1.0 1.0 0.00 0.00 0.00 47 1011.2
20260504182533 71 55 7.0 10.0 0.00 0.00 0.00 37 1011.2
20260504182030 71 67 0.0 2.0 0.00 0.00 0.00 38 1011.4
20260504181527 72 74 2.0 3.0 0.00 0.00 0.00 39 1011.3
20260504181026 73 232 2.0 6.0 0.00 0.00 0.00 43 1011.4
20260504180524 72 195 2.0 2.0 0.00 0.00 0.00 40 1011.4
20260504180023 71 26 6.0 7.0 0.00 0.00 0.00 39 1011.5
20260504175519 70 9 3.0 5.0 0.00 0.00 0.00 38 1011.3
20260504175016 71 7 7.0 8.0 0.00 0.00 0.00 36 1011.5
20260504174514 72 120 7.0 10.0 0.00 0.00 0.00 39 1011.6
20260504174011 69 352 0.0 0.0 0.00 0.00 0.00 42 1011.6
20260504173508 69 229 2.0 2.0 0.00 0.00 0.00 40 1011.8
20260504173005 69 332 4.0 6.0 0.00 0.00 0.00 42 1011.6
20260504172501 69 10 3.0 6.0 0.00 0.00 0.00 41 1011.7
20260504171957 69 38 3.0 3.0 0.00 0.00 0.00 40 1011.9
20260504171454 69 341 1.0 1.0 0.00 0.00 0.00 44 1011.8
20260504170951 71 74 3.0 6.0 0.00 0.00 0.00 43 1012.0
20260504170447 68 67 0.0 1.0 0.00 0.00 0.00 46 1011.9
20260504160407 67 203 1.0 2.0 0.00 0.00 0.00 46 1012.6
20260504150831 64 58 3.0 6.0 0.00 0.00 0.00 42 1013.4
20260504150328 65 79 0.0 1.0 0.00 0.00 0.00 46 1013.3
20260504141258 62 308 4.0 5.0 0.00 0.00 0.00 47 1013.8
20260504140754 62 66 1.0 1.0 0.00 0.00 0.00 51 1013.8
20260504140250 62 183 2.0 3.0 0.00 0.00 0.00 50 1013.8
20260504130719 59 151 3.0 5.0 0.00 0.00 0.00 49 1014.0
20260504130215 58 140 5.0 8.0 0.00 0.00 0.00 47 1014.1
20260504120139 51 50 1.0 2.0 0.00 0.00 0.00 61 1014.3
20260504110606 45 47 0.0 0.0 0.00 0.00 0.00 76 1014.6
20260504100528 41 69 0.0 0.0 0.00 0.00 0.00 80 1014.3
20260504081921 46 57 0.0 0.0 0.00 0.00 0.00 68 1014.1
20260504081418 46 1 0.0 0.0 0.00 0.00 0.00 68 1014.2
20260504080914 46 43 0.0 0.0 0.00 0.00 0.00 72 1014.0
20260504080411 46 45 0.0 0.0 0.00 0.00 0.00 75 1014.1
20260504070339 43 55 0.0 0.0 0.00 0.00 0.00 85 1013.8
20260504050721 41 69 0.0 0.0 0.00 0.00 0.00 86 1014.6
20260504050218 41 69 0.0 0.0 0.00 0.00 0.00 85 1014.6
20260504045715 41 69 0.0 0.0 0.00 0.00 0.00 86 1014.7
20260504045210 41 69 0.0 0.0 0.00 0.00 0.00 84 1014.5
20260504044708 40 69 0.0 0.0 0.00 0.00 0.00 85 1014.7
20260504044205 40 69 0.0 0.0 0.00 0.00 0.00 87 1014.7
20260504043702 40 69 0.0 0.0 0.00 0.00 0.00 86 1014.6
20260504043158 40 69 0.0 0.0 0.00 0.00 0.00 85 1014.8
20260504042656 40 69 0.0 0.0 0.00 0.00 0.00 84 1014.6
20260504042152 40 69 0.0 0.0 0.00 0.00 0.00 85 1014.6
20260504041648 39 69 0.0 0.0 0.00 0.00 0.00 86 1014.8
20260504041144 39 68 0.0 0.0 0.00 0.00 0.00 87 1014.6
20260504040642 39 68 0.0 0.0 0.00 0.00 0.00 86 1014.5
20260504040139 39 66 0.0 0.0 0.00 0.00 0.00 87 1014.5
20260504035635 39 65 0.0 0.0 0.00 0.00 0.00 87 1014.5
20260504035132 38 65 0.0 0.0 0.00 0.00 0.00 87 1014.5
20260504034630 38 66 0.0 0.0 0.00 0.00 0.00 88 1014.3
20260504034126 38 64 0.0 0.0 0.00 0.00 0.00 87 1014.3
20260504033624 37 64 0.0 0.0 0.00 0.00 0.00 88 1014.6
20260504033121 37 64 0.0 0.0 0.00 0.00 0.00 89 1014.5
20260504032618 36 64 0.0 0.0 0.00 0.00 0.00 89 1014.5
20260504032115 36 64 0.0 0.0 0.00 0.00 0.00 88 1014.3
20260504031612 36 64 0.0 0.0 0.00 0.00 0.00 88 1014.5
20260504031108 36 64 0.0 0.0 0.00 0.00 0.00 88 1014.5
20260504030605 36 62 0.0 0.0 0.00 0.00 0.00 87 1014.5
20260504025559 37 62 0.0 0.0 0.00 0.00 0.00 87 1014.2
20260504025056 37 62 0.0 0.0 0.00 0.00 0.00 87 1014.3
20260504024553 37 62 0.0 0.0 0.00 0.00 0.00 86 1014.2
20260504024050 37 62 0.0 0.0 0.00 0.00 0.00 85 1014.3
20260504023546 37 62 0.0 0.0 0.00 0.00 0.00 85 1014.5
20260504023042 37 62 0.0 0.0 0.00 0.00 0.00 85 1014.3
20260504022538 37 59 0.0 0.0 0.00 0.00 0.00 86 1014.2
20260504022035 38 57 0.0 0.0 0.00 0.00 0.00 86 1014.5
20260504021532 38 57 0.0 0.0 0.00 0.00 0.00 85 1014.3
20260504021029 38 58 0.0 0.0 0.00 0.00 0.00 85 1014.4
20260504020526 38 55 0.0 0.0 0.00 0.00 0.00 84 1014.5
20260504020022 38 55 0.0 0.0 0.00 0.00 0.00 84 1014.6
20260504015519 38 53 0.0 0.0 0.00 0.00 0.00 84 1014.5
20260504015015 39 49 0.0 0.0 0.00 0.00 0.00 83 1014.6
20260504014511 39 49 0.0 0.0 0.00 0.00 0.00 84 1014.4
20260504014008 39 48 0.0 0.0 0.00 0.00 0.00 83 1014.4
20260504013506 39 46 0.0 0.0 0.00 0.00 0.00 83 1014.3
20260504013003 39 23 0.0 0.0 0.00 0.00 0.00 82 1014.3
20260504012500 40 23 0.0 0.0 0.00 0.00 0.00 82 1014.2
20260504011958 40 23 0.0 0.0 0.00 0.00 0.00 82 1014.3
20260504011454 40 23 0.0 0.0 0.00 0.00 0.00 79 1013.9
20260504010950 40 23 0.0 0.0 0.00 0.00 0.00 79 1013.9
20260504010446 40 23 0.0 0.0 0.00 0.00 0.00 81 1014.0
20260504005942 41 23 0.0 0.0 0.00 0.00 0.00 81 1014.0
20260504005439 41 22 0.0 0.0 0.00 0.00 0.00 78 1013.9
20260504004937 42 22 0.0 0.0 0.00 0.00 0.00 78 1013.8
20260504004434 42 22 0.0 0.0 0.00 0.00 0.00 74 1013.6
20260504003931 43 22 0.0 0.0 0.00 0.00 0.00 74 1013.5
20260504003427 44 22 0.0 0.0 0.00 0.00 0.00 75 1013.6
20260504002924 45 22 0.0 0.0 0.00 0.00 0.00 69 1013.7
20260504002421 45 22 0.0 0.0 0.00 0.00 0.00 75 1013.5
20260504001919 46 22 0.0 0.0 0.00 0.00 0.00 70 1013.6
20260504001416 46 22 0.0 0.0 0.00 0.00 0.00 70 1013.5
20260504000912 46 22 0.0 0.0 0.00 0.00 0.00 67 1013.4
20260504000410 46 22 0.0 0.0 0.00 0.00 0.00 67 1013.3
20260503235907 46 22 0.0 0.0 0.00 0.00 0.00 68 1013.4
20260503235405 47 22 0.0 0.0 0.00 0.00 0.00 68 1013.1
20260503234902 48 22 0.0 0.0 0.00 0.00 0.00 67 1013.1